This demonstration page uses our WeatherBlox Daily Observations layout. Learn more.

39.29038, -76.61219

Hourly Observations for August 2, 2019

Temp ( °F °C ) Dew Point ( °F °C ) Humidity (%) Winds ( mph kmh ) Pressure ( in mb ) Visibility ( mi km ) Precip ( " mm )
12:54 am 00:54 undefined 78 25.6 68 20 71 71 undefined N/A 30.09 1019 N/A 0 0
1:54 am 01:54 undefined 76 24.4 68 20 77 77 undefined N/A 30.06 1018 N/A 0 0
2:54 am 02:54 undefined 76 24.4 69 20.6 79 79 undefined N/A 30.06 1018 N/A 0 0
3:54 am 03:54 undefined 75 23.9 69 20.6 82 82 undefined N/A 30.06 1018 N/A 0 0
4:54 am 04:54 undefined 76 24.4 69 20.6 79 79 undefined N/A 30.09 1019 N/A 0 0
5:54 am 05:54 undefined 75 23.9 69 20.6 82 82 undefined N/A 30.09 1019 N/A 0 0
6:54 am 06:54 undefined 75 23.9 70 21.1 84 84 undefined N/A 30.09 1019 N/A 0 0
7:54 am 07:54 undefined 76 24.4 70 21.1 82 82 undefined N/A 30.09 1019 N/A 0 0
8:54 am 08:54 undefined 78 25.6 71 21.7 79 79 undefined N/A 30.12 1020 N/A 0 0
9:54 am 09:54 undefined 79 26.1 72 22.2 79 79 undefined N/A 30.12 1020 N/A 0 0
10:54 am 10:54 undefined 79 26.1 68 20 69 69 undefined N/A 30.09 1019 N/A 0.01 0.254
11:54 am 11:54 undefined 82 27.8 68 20 63 63 undefined N/A 30.15 1021 N/A 0 0
12:54 pm 12:54 undefined 85 29.4 68 20 57 57 undefined N/A 30.12 1020 N/A 0 0
1:54 pm 13:54 undefined 87 30.6 65 18.3 48 48 undefined N/A 30.09 1019 N/A 0 0
2:54 pm 14:54 undefined 88 31.1 67 19.4 50 50 undefined N/A 30.09 1019 N/A 0 0
3:54 pm 15:54 undefined 88 31.1 66 18.9 48 48 undefined N/A 30.06 1018 N/A 0 0
4:54 pm 16:54 undefined 89 31.7 65 18.3 45 45 undefined N/A 30.06 1018 N/A 0 0
5:54 pm 17:54 undefined 85 29.4 66 18.9 53 53 undefined N/A 30.03 1017 N/A 0 0
6:54 pm 18:54 undefined 81 27.2 69 20.6 67 67 undefined N/A 30.03 1017 N/A 0 0
7:54 pm 19:54 undefined 81 27.2 68 20 65 65 undefined N/A 30.03 1017 N/A 0 0
8:54 pm 20:54 undefined 79 26.1 68 20 69 69 undefined N/A 30.06 1018 N/A 0 0
9:54 pm 21:54 undefined 79 26.1 67 19.4 67 67 undefined N/A 30.06 1018 N/A 0 0
10:54 pm 22:54 undefined 78 25.6 69 20.6 74 74 undefined N/A 30.06 1018 N/A 0 0
11:54 pm 23:54 undefined 77 25 69 20.6 77 77 undefined N/A 30.06 1018 N/A 0 0

Powered by AerisWeather